OPS 5712 (P/L 160)

Last updated on Thu Sep 10 2026 00:03:41 GMT+0000 (Coordinated Universal Time)

1 02826U 67053A 26252.56586242 .00005629 00000+0 77687-3 0 9993 2 02826 69.9162 191.3151 0004226 274.7992 85.2673 14.78660217 78703
UTC large
Height (km)
Speed (km/s)
/
Latitude / Longitude
Inclination (degrees)
Orbital Period (minutes)
Azimuth
Elevation
Range (km)
Doppler Factor

Next 0 passes for location: London (51.5072 / 0.1276)

No passes found over London.
OPS 5712 (P/L 160)